Location: Northcutt
(34.7304°N, 84.4305°W)
Time: 11:03:21
(UTC+00:00)

Vanguard 1 - All Passes

Search period start: 05 October 2022 00:00
Search period end: 15 October 2022 00:00
Orbit: 649 x 3832 km, 34.2° (Epoch: 04 October)

Date Brightness Start Highest point End Pass type
(mag) Time Alt. Az. Time Alt. Az. Time Alt. Az.
05 Oct - 01:36:37 10° W 01:40:42 17° SW 01:44:00 10° S visible
05 Oct - 13:57:35 10° SSE 14:07:42 14° SE 14:17:00 10° ESE daylight
05 Oct - 16:12:05 10° SSW 16:32:33 42° SSE 16:46:57 10° E daylight
05 Oct - 18:36:41 10° WSW 18:57:16 72° SSE 19:08:43 10° E daylight
05 Oct - 21:05:03 10° W 21:20:40 88° S 21:28:41 10° E daylight
05 Oct - 23:32:10 10° W 23:42:00 56° SSW 23:47:38 10° SE visible
06 Oct - 02:00:36 10° SW 02:00:49 10° SW 02:01:02 10° SW visible
06 Oct - 14:13:44 10° S 14:28:37 21° SE 14:41:44 10° E daylight
06 Oct - 16:32:01 10° SW 16:53:34 50° SSE 17:08:09 10° E daylight
06 Oct - 18:57:56 10° WSW 19:18:19 79° SSE 19:29:25 10° E daylight
06 Oct - 21:26:36 10° W 21:41:36 86° S 21:49:18 10° E daylight
06 Oct - 23:53:29 10° W 00:02:26 43° SSW 00:07:48 10° SE visible
07 Oct - 14:31:40 10° S 14:49:29 28° SE 15:04:37 10° E daylight
07 Oct - 16:52:21 10° SW 17:14:37 59° SSE 17:29:08 10° E daylight
07 Oct - 19:19:24 10° WSW 19:39:23 85° S 19:50:06 10° E daylight
07 Oct - 21:48:07 10° W 22:02:27 81° SSW 22:09:51 10° ESE daylight
08 Oct - 00:14:56 10° W 00:22:41 31° SW 00:27:42 10° SSE visible
08 Oct - 14:50:33 10° SSW 15:10:21 36° SE 15:26:39 10° E daylight
08 Oct - 17:13:02 10° SW 17:35:42 67° SSE 17:50:01 10° E daylight
08 Oct - 19:40:58 10° W 20:00:29 88° S 20:10:48 10° E daylight
08 Oct - 22:09:34 10° W 22:23:12 72° SSW 22:30:20 10° ESE daylight
09 Oct - 00:36:43 10° W 00:42:49 21° SW 00:47:09 10° S visible
09 Oct - 12:55:50 10° SSE 13:06:41 15° SE 13:17:20 10° ESE daylight
09 Oct - 15:10:01 10° SSW 15:31:15 44° SE 15:48:12 10° E daylight
09 Oct - 17:34:01 10° WSW 17:56:50 75° SSE 18:10:50 10° E daylight
09 Oct - 20:02:37 10° W 20:21:33 88° S 20:31:27 10° E daylight
09 Oct - 22:31:00 10° WNW 22:43:49 60° SSW 22:50:41 10° SE daylight
10 Oct - 00:59:21 10° WSW 01:02:49 13° SW 01:05:41 10° SSW visible
10 Oct - 13:12:17 10° S 13:27:21 22° SE 13:41:58 10° E daylight
10 Oct - 15:29:56 10° SW 15:52:13 53° SSE 16:09:27 10° ENE daylight
10 Oct - 17:55:15 10° WSW 18:18:00 81° SSE 18:31:37 10° E daylight
10 Oct - 20:24:16 10° W 20:42:35 86° S 20:52:06 10° E daylight
10 Oct - 22:52:28 10° WNW 23:04:16 48° SSW 23:10:51 10° SE daylight
11 Oct - 13:30:21 10° S 13:48:00 30° SE 14:04:54 10° E daylight
11 Oct - 15:50:14 10° SW 16:13:16 62° SSE 16:30:32 10° ENE daylight
11 Oct - 18:16:41 10° WSW 18:39:13 86° S 18:52:23 10° E daylight
11 Oct - 20:45:53 10° W 21:03:33 81° SSW 21:12:42 10° ESE daylight
11 Oct - 23:14:01 10° W 23:24:31 36° SW 23:30:46 10° SSE daylight
12 Oct - 13:49:16 10° SSW 14:08:42 38° SE 14:27:01 10° E daylight
12 Oct - 16:10:52 10° SW 16:34:23 70° SSE 16:51:30 10° ENE daylight
12 Oct - 18:38:15 10° W 19:00:27 88° S 19:13:09 10° E daylight
12 Oct - 21:07:27 10° W 21:24:24 73° SSW 21:33:12 10° ESE daylight
12 Oct - 23:35:52 10° W 23:44:37 26° SW 23:50:18 10° S visible
13 Oct - 11:55:18 10° SSE 12:05:33 15° SE 12:16:19 10° E daylight
13 Oct - 14:08:45 10° SSW 14:29:27 46° SE 14:48:39 10° ENE daylight
13 Oct - 16:31:48 10° WSW 16:55:35 77° SSE 17:12:24 10° E daylight
13 Oct - 18:59:54 10° W 19:21:41 89° S 19:33:53 10° E daylight
13 Oct - 21:29:00 10° WNW 21:45:05 63° SSW 21:53:34 10° SE daylight
13 Oct - 23:58:16 10° W 00:04:34 17° SW 00:09:12 10° SSW visible
14 Oct - 12:11:49 10° S 12:25:57 22° SE 12:41:08 10° E daylight
14 Oct - 14:28:39 10° SW 14:50:19 55° SSE 15:10:00 10° ENE daylight
14 Oct - 16:52:57 10° WSW 17:16:52 82° SSE 17:33:17 10° E daylight
14 Oct - 19:21:34 10° W 19:42:51 86° S 19:54:36 10° ESE daylight
14 Oct - 21:50:33 10° WNW 22:05:35 52° SSW 22:13:45 10° SE daylight
